ORBCOMM FM111 [-]

Last updated on Fri Dec 29 2023 00:02:54 GMT+0000 (Coordinated Universal Time)

1 40089U 14040D 23361.85937443 .00003485 00000+0 47104-3 0 9996 2 40089 47.0011 170.5884 0033691 152.2376 208.0325 14.80660069510452

Satellite not in orbit

ORBCOMM FM111 [-]